Starlink 3154

operational
NORAD ID: 49417 Int'l Des: 2021-104 Owner: SPXS Country: US Constellation: starlink
LEOCIRCULAR

About Starlink 3154

Description loading...

Live Position

Loading 3D Globe...

Upcoming Passes

Altitude History

Altitude vs Time

uPlot chart will show altitude changes over time

Two-Line Element Set

1 49417U 21104K 25350.07368100 -.00000564 00000-0 -17380-4 0 9993
2 49417 53.2175 234.1415 0001434 95.5571 264.5585 15.08827672226140
Epoch: Dec 16, 2025 • Age: 23 hours

Current Status

Altitude 540.4 km
Velocity 7.60 km/s
Sub-Earth Point 27.72°N, 68.99°W
Launch Date Nov 13, 2021
Age 4 years
Type internet

Technical Details

Classification Payload
Mass 290.00 kg
Dry Mass 270.00 kg
Total Mass 290.00 kg
Length 0.20 m
Diameter 2.80 m
Span 9.00 m
Shape Box + pan
Manufacturer SPXS
Bus Type Starlink
Phase Status In Orbit
Owner/State SPXS/US

Large Constellations

Loading constellations...